UAE308 OMDB-EGLL

Flight info

Callsign UAE308
Flight time N/A
Altitude 36000
Route SENPA N571 ALPOB L768 ULADA Q143 MEDGO N697 HIL A788 HLF L604 WEJ L677 PASAM/N0502F380 L677 CVO L617 NOZ L551 ANTAR UN133 KPC DCT FSK DCT DISOR DCT LONTA UL608 DOLEV DCT BOSNA DCT MARIL DCT OKSIG DCT KUSIB DCT GORPA DCT DOL DCT NIPEL DCT ERKIR/N0485F400 DCT BABEG DCT LIRSU DCT ARCKY DCT BUB L608 LOGAN
Aircraft A388/J-SADE2E3FGHIJ3J4J5M1RWXY/LB1D1

Departure

Time 2026-04-25 12:24
Airport Dubai International Airport (OMDB)

Arrival

Time N/A
Airport London Heathrow Airport (EGLL)
Time Latitude Longitude Altitude Speed Heading
2026-04-25 12:04 25.24215 55.37594 26 ft 0 kts 249°
2026-04-25 12:15 25.24215 55.37595 26 ft 2 kts 249°
2026-04-25 12:15 25.24221 55.37612 26 ft 2 kts 250°
2026-04-25 12:15 25.24226 55.37629 25 ft 2 kts 252°
2026-04-25 12:16 25.24231 55.37646 24 ft 2 kts 255°
2026-04-25 12:16 25.24234 55.37664 26 ft 2 kts 260°
2026-04-25 12:16 25.24234 55.37682 26 ft 2 kts 274°
2026-04-25 12:16 25.24228 55.37698 24 ft 2 kts 309°
2026-04-25 12:17 25.24214 55.37708 25 ft 2 kts 337°
2026-04-25 12:17 25.24197 55.37710 24 ft 2 kts 358°
2026-04-25 12:17 25.24181 55.37708 24 ft 2 kts 10°
2026-04-25 12:17 25.24167 55.37703 24 ft 1 kts 20°
2026-04-25 12:18 25.24163 55.37701 24 ft 0 kts 24°
2026-04-25 12:20 25.24166 55.37703 24 ft 1 kts 27°
2026-04-25 12:20 25.24194 55.37723 25 ft 7 kts 32°
2026-04-25 12:20 25.24238 55.37753 26 ft 8 kts 32°
2026-04-25 12:20 25.24290 55.37789 27 ft 9 kts 31°
2026-04-25 12:21 25.24345 55.37828 29 ft 9 kts 32°
2026-04-25 12:21 25.24392 55.37862 31 ft 7 kts 34°
2026-04-25 12:21 25.24431 55.37892 34 ft 7 kts 34°
2026-04-25 12:21 25.24473 55.37923 35 ft 9 kts 34°
2026-04-25 12:22 25.24543 55.37976 32 ft 15 kts 34°
2026-04-25 12:22 25.24618 55.38033 30 ft 0 kts 31°
2026-04-25 12:22 25.24627 55.38039 30 ft 3 kts 31°
2026-04-25 12:22 25.24651 55.38054 31 ft 4 kts 31°
2026-04-25 12:23 25.24689 55.38080 33 ft 10 kts 30°
2026-04-25 12:23 25.24761 55.38102 35 ft 9 kts 315°
2026-04-25 12:23 25.24783 55.38068 35 ft 5 kts 302°
2026-04-25 12:23 25.24915 55.37831 35 ft 72 kts 302°
2026-04-25 12:24 25.25288 55.37165 36 ft 128 kts 302°
2026-04-25 12:24 25.25820 55.36204 42 ft 162 kts 302°
2026-04-25 12:24 25.26399 55.35152 537 ft 152 kts 302°
2026-04-25 12:24 25.26967 55.34089 717 ft 171 kts 302°
2026-04-25 12:25 25.27586 55.32955 1057 ft 171 kts 301°
2026-04-25 12:25 25.28231 55.31807 1368 ft 180 kts 303°
2026-04-25 12:25 25.28889 55.30651 1802 ft 179 kts 302°
2026-04-25 12:25 25.29456 55.29358 1947 ft 195 kts 289°
2026-04-25 12:26 25.29725 55.27844 2024 ft 209 kts 275°
2026-04-25 12:26 25.29817 55.26216 2120 ft 216 kts 276°
2026-04-25 12:26 25.29940 55.24527 2167 ft 225 kts 276°
2026-04-25 12:26 25.30082 55.22752 2407 ft 237 kts 276°
2026-04-25 12:27 25.30227 55.20951 3042 ft 235 kts 276°
2026-04-25 12:27 25.30371 55.19153 3635 ft 234 kts 276°
2026-04-25 12:27 25.30363 55.17338 4138 ft 239 kts 265°
2026-04-25 12:27 25.30198 55.15475 4489 ft 256 kts 265°
2026-04-25 12:28 25.30036 55.13442 4779 ft 271 kts 266°
2026-04-25 12:28 25.29878 55.11373 5484 ft 269 kts 265°
2026-04-25 12:28 25.29721 55.09304 6092 ft 272 kts 265°
2026-04-25 12:28 25.29560 55.07201 6664 ft 276 kts 265°
2026-04-25 12:29 25.29450 55.05769 7073 ft 277 kts 265°
2026-04-25 12:29 25.29288 55.03670 7672 ft 279 kts 264°
2026-04-25 12:29 25.29123 55.01524 8291 ft 281 kts 264°
2026-04-25 12:29 25.28955 54.99363 8909 ft 284 kts 264°
2026-04-25 12:30 25.28786 54.97182 9514 ft 286 kts 264°
2026-04-25 12:30 25.28615 54.94986 10100 ft 288 kts 264°
2026-04-25 12:30 25.28473 54.92722 10355 ft 304 kts 266°
2026-04-25 12:30 25.28409 54.90318 10501 ft 321 kts 268°
2026-04-25 12:31 25.28362 54.87791 10643 ft 337 kts 268°
2026-04-25 12:31 25.28307 54.85176 11037 ft 343 kts 268°
2026-04-25 12:31 25.28241 54.82530 11582 ft 346 kts 267°
2026-04-25 12:31 25.28167 54.79863 12095 ft 349 kts 267°
2026-04-25 12:32 25.28090 54.77168 12621 ft 352 kts 268°
2026-04-25 12:32 25.28221 54.74446 13133 ft 357 kts 276°
2026-04-25 12:32 25.28717 54.71750 13673 ft 361 kts 284°
2026-04-25 12:32 25.29415 54.69116 14149 ft 363 kts 284°
2026-04-25 12:33 25.30105 54.66425 14670 ft 364 kts 284°
2026-04-25 12:33 25.30785 54.63724 15206 ft 365 kts 284°
2026-04-25 12:33 25.31466 54.61013 15732 ft 366 kts 283°
2026-04-25 12:33 25.32149 54.58293 16243 ft 368 kts 283°
2026-04-25 12:34 25.32837 54.55557 16720 ft 371 kts 283°
2026-04-25 12:34 25.33531 54.52799 17211 ft 373 kts 283°
2026-04-25 12:34 25.34262 54.50034 17700 ft 375 kts 284°
2026-04-25 12:34 25.34762 54.48200 17984 ft 378 kts 284°
2026-04-25 12:35 25.35788 54.44463 18569 ft 380 kts 284°
2026-04-25 12:35 25.36551 54.41670 19024 ft 380 kts 284°
2026-04-25 12:35 25.37312 54.38864 19448 ft 381 kts 284°
2026-04-25 12:35 25.38072 54.36050 19879 ft 382 kts 284°
2026-04-25 12:36 25.38834 54.33222 20297 ft 383 kts 284°
2026-04-25 12:36 25.39594 54.30395 20706 ft 384 kts 284°
2026-04-25 12:36 25.40348 54.27591 21111 ft 386 kts 284°
2026-04-25 12:36 25.41093 54.24703 21520 ft 386 kts 283°
2026-04-25 12:37 25.41793 54.21866 21942 ft 387 kts 282°
2026-04-25 12:37 25.42498 54.18984 22347 ft 388 kts 282°
2026-04-25 12:37 25.43207 54.16095 22748 ft 390 kts 282°
2026-04-25 12:37 25.43923 54.13199 23173 ft 390 kts 282°
2026-04-25 12:38 25.44642 54.10295 23545 ft 391 kts 282°
2026-04-25 12:38 25.45355 54.07385 23842 ft 393 kts 282°
2026-04-25 12:38 25.46061 54.04449 24132 ft 396 kts 282°
2026-04-25 12:38 25.46767 54.01500 24434 ft 397 kts 282°
2026-04-25 12:39 25.47479 53.98531 24730 ft 400 kts 282°
2026-04-25 12:39 25.48193 53.95552 25016 ft 402 kts 282°
2026-04-25 12:39 25.48914 53.92553 25316 ft 404 kts 282°
2026-04-25 12:39 25.49638 53.89538 25613 ft 406 kts 282°
2026-04-25 12:40 25.50364 53.86510 25908 ft 408 kts 282°
2026-04-25 12:40 25.51095 53.83459 26234 ft 410 kts 282°
2026-04-25 12:40 25.51818 53.80437 26558 ft 413 kts 282°
2026-04-25 12:40 25.52557 53.77347 26895 ft 415 kts 282°
2026-04-25 12:41 25.53297 53.74247 27236 ft 418 kts 282°
2026-04-25 12:41 25.54043 53.71132 27656 ft 419 kts 282°
2026-04-25 12:41 25.54791 53.68007 28008 ft 421 kts 282°
2026-04-25 12:41 25.55544 53.64862 28410 ft 424 kts 282°
2026-04-25 12:42 25.56300 53.61699 28787 ft 426 kts 282°
2026-04-25 12:42 25.56802 53.59593 29037 ft 428 kts 282°
2026-04-25 12:42 25.57824 53.55308 29554 ft 431 kts 282°
2026-04-25 12:42 25.58591 53.52085 29940 ft 434 kts 282°
2026-04-25 12:43 25.59363 53.48842 30301 ft 436 kts 282°
2026-04-25 12:43 25.60136 53.45589 30693 ft 437 kts 282°
2026-04-25 12:43 25.61676 53.39097 31413 ft 440 kts 282°
2026-04-25 12:44 25.62453 53.35808 31768 ft 441 kts 282°
2026-04-25 12:44 25.63231 53.32511 32129 ft 443 kts 281°
2026-04-25 12:44 25.64792 53.25886 32831 ft 446 kts 281°
2026-04-25 12:45 25.65575 53.22557 33246 ft 446 kts 281°
2026-04-25 12:45 25.66358 53.19226 33604 ft 448 kts 281°
2026-04-25 12:45 25.67927 53.12543 34344 ft 448 kts 281°
2026-04-25 12:46 25.68710 53.09199 34747 ft 447 kts 281°
2026-04-25 12:46 25.69489 53.05873 35247 ft 444 kts 282°
2026-04-25 12:46 25.70359 53.02647 35735 ft 442 kts 287°
2026-04-25 12:46 25.71510 52.99467 35902 ft 447 kts 291°
2026-04-25 12:47 25.74374 52.93369 35904 ft 446 kts 294°
2026-04-25 12:47 25.77259 52.87263 35904 ft 447 kts 294°
2026-04-25 12:48 25.80140 52.81148 35909 ft 447 kts 294°
2026-04-25 12:48 25.83020 52.75033 35906 ft 446 kts 294°
2026-04-25 12:49 25.85898 52.68918 35913 ft 447 kts 294°
2026-04-25 12:49 25.88753 52.62840 35916 ft 447 kts 294°
2026-04-25 12:50 25.91587 52.56684 35917 ft 446 kts 292°
2026-04-25 12:50 25.94292 52.50487 35921 ft 446 kts 292°
2026-04-25 12:51 25.97008 52.44286 35932 ft 445 kts 292°
2026-04-25 12:51 25.99728 52.38107 35924 ft 445 kts 292°
2026-04-25 12:52 26.02463 52.31991 35902 ft 444 kts 292°
2026-04-25 12:52 26.05211 52.25847 35903 ft 443 kts 292°
2026-04-25 12:53 26.07953 52.19695 35918 ft 443 kts 292°
2026-04-25 12:53 26.10688 52.13545 35909 ft 444 kts 292°
2026-04-25 12:54 26.13410 52.07418 35907 ft 444 kts 292°
2026-04-25 12:54 26.16144 52.01253 35914 ft 444 kts 292°
2026-04-25 12:55 26.18448 51.96083 35917 ft 445 kts 292°
2026-04-25 12:55 26.21667 51.88909 35921 ft 445 kts 292°
2026-04-25 12:56 26.24394 51.82701 35937 ft 446 kts 291°
2026-04-25 12:56 26.27136 51.76495 35936 ft 446 kts 292°
2026-04-25 12:57 26.29896 51.70318 35932 ft 445 kts 292°
2026-04-25 12:57 26.32636 51.64172 35928 ft 445 kts 292°
2026-04-25 12:58 26.35385 51.58006 35925 ft 444 kts 292°
2026-04-25 12:58 26.38036 51.51795 35944 ft 441 kts 288°
2026-04-25 12:59 26.40100 51.45369 35922 ft 440 kts 286°
2026-04-25 12:59 26.42159 51.38942 35918 ft 440 kts 286°
2026-04-25 13:00 26.43534 51.34646 35920 ft 439 kts 286°
2026-04-25 13:00 26.46269 51.26097 35912 ft 439 kts 286°
2026-04-25 13:01 26.48311 51.19698 35911 ft 440 kts 286°
2026-04-25 13:01 26.50362 51.13259 35933 ft 440 kts 286°
2026-04-25 13:02 26.52410 51.06819 35934 ft 440 kts 286°
2026-04-25 13:02 26.54453 51.00380 35931 ft 439 kts 286°
2026-04-25 13:03 26.56491 50.93948 35927 ft 439 kts 286°
2026-04-25 13:03 26.58514 50.87514 35912 ft 438 kts 286°
2026-04-25 13:04 26.60502 50.81085 35927 ft 437 kts 286°
2026-04-25 13:04 26.62487 50.74661 35931 ft 437 kts 285°
2026-04-25 13:05 26.64459 50.68278 35930 ft 437 kts 285°
2026-04-25 13:05 26.66376 50.61848 35941 ft 435 kts 285°
2026-04-25 13:06 26.68267 50.55423 35942 ft 434 kts 285°
2026-04-25 13:06 26.70157 50.49024 35928 ft 433 kts 285°
2026-04-25 13:07 26.71898 50.42590 35914 ft 431 kts 283°
2026-04-25 13:07 26.73511 50.36120 35957 ft 430 kts 283°
2026-04-25 13:08 26.75027 50.29705 35938 ft 428 kts 279°
2026-04-25 13:08 26.75763 50.23128 35934 ft 425 kts 271°
2026-04-25 13:09 26.75840 50.16513 35940 ft 425 kts 270°
2026-04-25 13:09 26.75917 50.09900 35941 ft 425 kts 270°
2026-04-25 13:10 26.75985 50.03286 35940 ft 424 kts 270°
2026-04-25 13:10 26.76045 49.96677 35925 ft 424 kts 270°
2026-04-25 13:11 26.76100 49.90121 35943 ft 424 kts 270°
2026-04-25 13:11 26.76149 49.83516 35938 ft 425 kts 270°
2026-04-25 13:12 26.76196 49.76896 35948 ft 425 kts 269°
2026-04-25 13:12 26.76226 49.72467 35952 ft 425 kts 270°
2026-04-25 13:13 26.76281 49.63651 35955 ft 424 kts 270°
2026-04-25 13:13 26.76318 49.57091 35954 ft 424 kts 270°
2026-04-25 13:14 26.76356 49.50491 35976 ft 423 kts 270°
2026-04-25 13:14 26.76391 49.43894 35960 ft 423 kts 270°
2026-04-25 13:15 26.76423 49.37312 35955 ft 422 kts 270°
2026-04-25 13:15 26.76450 49.30795 35955 ft 422 kts 270°
2026-04-25 13:16 26.76474 49.24243 35960 ft 421 kts 270°
2026-04-25 13:16 26.76495 49.17698 35953 ft 420 kts 270°
2026-04-25 13:17 26.76513 49.11157 35960 ft 420 kts 270°
2026-04-25 13:17 26.76528 49.04629 35971 ft 419 kts 270°
2026-04-25 13:18 26.76540 48.98110 35969 ft 418 kts 270°
2026-04-25 13:18 26.76547 48.92712 35957 ft 417 kts 270°
2026-04-25 13:19 26.76555 48.85168 35954 ft 417 kts 270°
2026-04-25 13:19 26.76557 48.80830 35951 ft 417 kts 270°
2026-04-25 13:20 26.76558 48.73250 35959 ft 417 kts 270°
2026-04-25 13:20 26.76488 48.65718 35955 ft 417 kts 268°
2026-04-25 13:21 26.76320 48.60288 35971 ft 416 kts 268°
2026-04-25 13:21 26.76129 48.53818 35970 ft 416 kts 269°
2026-04-25 13:22 26.75953 48.47384 35974 ft 416 kts 269°
2026-04-25 13:23 26.75688 48.37689 35977 ft 415 kts 269°
2026-04-25 13:23 26.75508 48.31232 35974 ft 415 kts 269°
2026-04-25 13:24 26.75328 48.24781 35975 ft 415 kts 269°
2026-04-25 13:24 26.75145 48.18325 35974 ft 414 kts 269°
2026-04-25 13:25 26.74959 48.11883 35973 ft 414 kts 269°
2026-04-25 13:25 26.74771 48.05490 35975 ft 414 kts 268°
2026-04-25 13:26 26.74580 47.99055 35981 ft 414 kts 268°
2026-04-25 13:26 26.74385 47.92612 35980 ft 414 kts 268°
2026-04-25 13:27 26.74340 47.86175 35985 ft 413 kts 273°
2026-04-25 13:27 26.74688 47.79749 35993 ft 413 kts 272°
2026-04-25 13:28 26.75008 47.73374 35992 ft 413 kts 272°
2026-04-25 13:28 26.75327 47.66955 35993 ft 413 kts 272°
2026-04-25 13:29 26.75643 47.60539 35987 ft 413 kts 272°
2026-04-25 13:29 26.75957 47.54133 35995 ft 412 kts 272°
2026-04-25 13:30 26.76422 47.44543 35987 ft 411 kts 272°
2026-04-25 13:31 26.77146 47.34989 35979 ft 412 kts 278°
2026-04-25 13:31 26.78146 47.28671 36015 ft 412 kts 278°
2026-04-25 13:32 26.79112 47.22387 36008 ft 412 kts 278°
2026-04-25 13:32 26.80083 47.16055 35991 ft 412 kts 277°
2026-04-25 13:33 26.81050 47.09739 35985 ft 411 kts 277°
2026-04-25 13:33 26.82013 47.03431 35985 ft 411 kts 277°
2026-04-25 13:34 26.82974 46.97116 35994 ft 411 kts 277°
2026-04-25 13:34 26.83932 46.90804 35984 ft 412 kts 277°
2026-04-25 13:35 26.84889 46.84482 36006 ft 411 kts 277°
2026-04-25 13:35 26.85841 46.78170 36001 ft 411 kts 277°
2026-04-25 13:36 26.86783 46.71907 35999 ft 410 kts 277°
2026-04-25 13:36 26.87727 46.65610 35993 ft 410 kts 277°
2026-04-25 13:37 26.88666 46.59322 35985 ft 409 kts 277°
2026-04-25 13:37 26.89605 46.53020 35972 ft 410 kts 277°
2026-04-25 13:38 26.90542 46.46713 35977 ft 410 kts 277°
2026-04-25 13:38 26.91476 46.40407 35999 ft 410 kts 277°
2026-04-25 13:39 26.92410 46.34094 35998 ft 411 kts 276°
2026-04-25 13:39 26.93346 46.27777 35995 ft 411 kts 276°
2026-04-25 13:40 26.94272 46.21504 35996 ft 411 kts 276°
2026-04-25 13:40 26.95207 46.15144 35969 ft 412 kts 276°
2026-04-25 13:41 26.96131 46.08840 35972 ft 413 kts 276°
2026-04-25 13:41 26.97060 46.02484 36025 ft 412 kts 276°
2026-04-25 13:42 26.97984 45.96140 36001 ft 412 kts 276°
2026-04-25 13:42 26.98905 45.89798 35984 ft 411 kts 276°
2026-04-25 13:43 26.99815 45.83505 35979 ft 411 kts 276°
2026-04-25 13:43 27.00727 45.77181 35974 ft 411 kts 276°
2026-04-25 13:44 27.01638 45.70849 35971 ft 411 kts 276°
2026-04-25 13:44 27.02545 45.64513 35987 ft 412 kts 276°
2026-04-25 13:45 27.03451 45.58170 35982 ft 411 kts 276°
2026-04-25 13:45 27.04357 45.51836 35981 ft 411 kts 276°
2026-04-25 13:46 27.05263 45.45501 35980 ft 411 kts 276°
2026-04-25 13:46 27.06060 45.39162 35977 ft 410 kts 274°
2026-04-25 13:47 27.06728 45.32856 35973 ft 410 kts 273°
2026-04-25 13:47 27.07420 45.26504 35982 ft 411 kts 274°
2026-04-25 13:48 27.08125 45.20140 35990 ft 411 kts 274°
2026-04-25 13:48 27.08830 45.13767 35992 ft 411 kts 274°
2026-04-25 13:49 27.09531 45.07393 35994 ft 411 kts 274°
2026-04-25 13:49 27.10229 45.01027 35990 ft 411 kts 274°
2026-04-25 13:50 27.10920 44.94691 35976 ft 412 kts 274°
2026-04-25 13:50 27.11613 44.88310 35980 ft 412 kts 274°
2026-04-25 13:51 27.12306 44.81914 35991 ft 413 kts 274°
2026-04-25 13:51 27.12995 44.75516 35993 ft 413 kts 274°
2026-04-25 13:52 27.13683 44.69106 35993 ft 413 kts 274°
2026-04-25 13:52 27.14371 44.62691 35994 ft 413 kts 274°
2026-04-25 13:53 27.15056 44.56277 35956 ft 414 kts 274°
2026-04-25 13:53 27.15738 44.49849 35964 ft 415 kts 273°
2026-04-25 13:54 27.16416 44.43437 35971 ft 417 kts 274°
2026-04-25 13:54 27.17098 44.36968 35992 ft 417 kts 274°
2026-04-25 13:55 27.17771 44.30489 35995 ft 417 kts 274°
2026-04-25 13:55 27.18441 44.24013 35987 ft 417 kts 274°
2026-04-25 13:56 27.19105 44.17558 35986 ft 416 kts 274°
2026-04-25 13:56 27.19761 44.11153 35976 ft 414 kts 274°
2026-04-25 13:57 27.20417 44.04729 35964 ft 413 kts 274°
2026-04-25 13:57 27.21069 43.98309 35946 ft 413 kts 274°
2026-04-25 13:58 27.21718 43.91892 35948 ft 413 kts 274°
2026-04-25 13:58 27.22363 43.85477 35952 ft 414 kts 273°
2026-04-25 13:59 27.23008 43.79039 35936 ft 415 kts 273°
2026-04-25 13:59 27.23647 43.72623 35950 ft 416 kts 273°
2026-04-25 14:00 27.24077 43.68291 35962 ft 417 kts 273°
2026-04-25 14:00 27.24935 43.59633 35978 ft 420 kts 273°
2026-04-25 14:01 27.25580 43.53101 35986 ft 421 kts 273°
2026-04-25 14:01 27.26222 43.46565 35990 ft 421 kts 273°
2026-04-25 14:02 27.26856 43.40067 36022 ft 420 kts 274°
2026-04-25 14:02 27.27489 43.33555 36015 ft 418 kts 274°
2026-04-25 14:03 27.28116 43.27069 35998 ft 416 kts 274°
2026-04-25 14:03 27.28739 43.20599 35979 ft 415 kts 273°
2026-04-25 14:04 27.29355 43.14157 35974 ft 414 kts 273°
2026-04-25 14:04 27.29968 43.07721 35931 ft 414 kts 273°
2026-04-25 14:05 27.30577 43.01294 35953 ft 414 kts 273°
2026-04-25 14:05 27.31186 42.94838 35953 ft 415 kts 273°
2026-04-25 14:06 27.31793 42.88372 35964 ft 416 kts 273°
2026-04-25 14:06 27.32399 42.81881 35978 ft 418 kts 273°
2026-04-25 14:07 27.33000 42.75413 35986 ft 419 kts 273°
2026-04-25 14:07 27.33604 42.68892 35988 ft 420 kts 273°
2026-04-25 14:08 27.34205 42.62358 35995 ft 420 kts 273°
2026-04-25 14:08 27.34801 42.55840 36012 ft 418 kts 273°
2026-04-25 14:09 27.35393 42.49342 35997 ft 416 kts 273°
2026-04-25 14:09 27.35976 42.42914 35982 ft 415 kts 273°
2026-04-25 14:10 27.36557 42.36455 35973 ft 414 kts 273°
2026-04-25 14:10 27.37133 42.30014 35938 ft 413 kts 273°
2026-04-25 14:11 27.37704 42.23610 35973 ft 411 kts 273°
2026-04-25 14:11 27.38269 42.17229 35979 ft 409 kts 273°
2026-04-25 14:12 27.38736 42.11937 35975 ft 408 kts 273°
2026-04-25 14:12 27.39385 42.04547 35966 ft 407 kts 273°
2026-04-25 14:13 27.39844 41.99287 35960 ft 406 kts 273°
2026-04-25 14:13 27.40394 41.92969 35953 ft 406 kts 273°
2026-04-25 14:14 27.40939 41.86651 35955 ft 405 kts 273°
2026-04-25 14:14 27.41481 41.80346 35955 ft 404 kts 273°
2026-04-25 14:15 27.41962 41.74045 35960 ft 403 kts 269°
2026-04-25 14:15 27.41498 41.67772 35959 ft 403 kts 259°
2026-04-25 14:16 27.39894 41.61767 35927 ft 406 kts 250°
2026-04-25 14:16 27.37566 41.55971 35974 ft 406 kts 249°
2026-04-25 14:17 27.35253 41.50154 35964 ft 408 kts 249°
2026-04-25 14:17 27.32924 41.44322 35988 ft 409 kts 249°
2026-04-25 14:18 27.30584 41.38490 35982 ft 410 kts 249°
2026-04-25 14:18 27.28237 41.32650 35980 ft 409 kts 249°
2026-04-25 14:19 27.25905 41.26853 35970 ft 409 kts 249°
2026-04-25 14:19 27.23554 41.21020 35973 ft 410 kts 249°
2026-04-25 14:20 27.21202 41.15189 35966 ft 410 kts 249°
2026-04-25 14:20 27.18845 41.09355 35982 ft 410 kts 249°
2026-04-25 14:21 27.16484 41.03520 35971 ft 410 kts 249°
2026-04-25 14:21 27.14124 40.97699 35946 ft 409 kts 249°
2026-04-25 14:22 27.11775 40.91913 35950 ft 409 kts 249°
2026-04-25 14:22 27.09411 40.86094 35948 ft 409 kts 249°
2026-04-25 14:23 27.07047 40.80284 35945 ft 409 kts 249°
2026-04-25 14:23 27.04683 40.74482 35946 ft 409 kts 249°
2026-04-25 14:24 27.02315 40.68681 35926 ft 409 kts 249°
2026-04-25 14:24 26.99944 40.62878 35917 ft 409 kts 249°
2026-04-25 14:25 26.97568 40.57073 35927 ft 410 kts 249°
2026-04-25 14:25 26.95198 40.51292 35930 ft 411 kts 249°
2026-04-25 14:26 26.92807 40.45467 35945 ft 412 kts 249°
2026-04-25 14:26 26.90408 40.39630 35911 ft 411 kts 249°
2026-04-25 14:27 26.88018 40.33826 35920 ft 410 kts 249°
2026-04-25 14:27 26.85643 40.28063 35908 ft 409 kts 249°
2026-04-25 14:28 26.83256 40.22281 35918 ft 409 kts 249°
2026-04-25 14:28 26.82041 40.16182 35904 ft 404 kts 271°
2026-04-25 14:28 26.82435 40.13065 35901 ft 407 kts 282°
2026-04-25 14:29 26.83460 40.10085 35902 ft 413 kts 289°
2026-04-25 14:29 26.85854 40.04243 35896 ft 413 kts 289°
2026-04-25 14:30 26.88209 39.98382 35908 ft 412 kts 288°
2026-04-25 14:30 26.91708 39.89575 35909 ft 412 kts 288°
2026-04-25 14:31 26.94032 39.83711 35914 ft 412 kts 288°
2026-04-25 14:31 26.96340 39.77879 35917 ft 412 kts 288°
2026-04-25 14:32 26.98660 39.72010 35936 ft 411 kts 288°
2026-04-25 14:32 27.00974 39.66148 35932 ft 411 kts 288°
2026-04-25 14:33 27.03281 39.60288 35919 ft 410 kts 288°
2026-04-25 14:33 27.05577 39.54446 35934 ft 409 kts 288°
2026-04-25 14:34 27.07855 39.48643 35932 ft 408 kts 288°
2026-04-25 14:34 27.10136 39.42822 35917 ft 407 kts 288°
2026-04-25 14:35 27.12414 39.37000 35915 ft 407 kts 288°
2026-04-25 14:35 27.14693 39.31166 35930 ft 407 kts 288°
2026-04-25 14:36 27.16964 39.25346 35928 ft 407 kts 288°
2026-04-25 14:36 27.19236 39.19516 35926 ft 407 kts 288°
2026-04-25 14:37 27.21487 39.13727 35926 ft 407 kts 288°
2026-04-25 14:37 27.23752 39.07897 35934 ft 407 kts 288°
2026-04-25 14:38 27.26014 39.02067 35922 ft 406 kts 288°
2026-04-25 14:38 27.28270 38.96246 35919 ft 406 kts 288°
2026-04-25 14:39 27.30520 38.90426 35915 ft 406 kts 288°
2026-04-25 14:39 27.32769 38.84599 35923 ft 405 kts 288°
2026-04-25 14:40 27.35013 38.78780 35923 ft 405 kts 288°
2026-04-25 14:40 27.37240 38.72996 35918 ft 405 kts 288°
2026-04-25 14:41 27.39477 38.67177 35913 ft 405 kts 287°
2026-04-25 14:41 27.41715 38.61347 35918 ft 405 kts 287°
2026-04-25 14:42 27.43573 38.56502 35912 ft 405 kts 287°
2026-04-25 14:42 27.46180 38.49692 35912 ft 405 kts 287°
2026-04-25 14:43 27.48405 38.43870 35910 ft 404 kts 287°
2026-04-25 14:43 27.50613 38.38083 35907 ft 404 kts 287°
2026-04-25 14:44 27.52832 38.32260 35908 ft 405 kts 287°
2026-04-25 14:44 27.55050 38.26428 35908 ft 405 kts 287°
2026-04-25 14:45 27.57268 38.20590 35911 ft 405 kts 287°
2026-04-25 14:45 27.59483 38.14752 35928 ft 405 kts 287°
2026-04-25 14:46 27.61694 38.08915 35922 ft 405 kts 287°
2026-04-25 14:46 27.63904 38.03073 35916 ft 404 kts 287°
2026-04-25 14:47 27.65732 37.98232 35914 ft 403 kts 287°
2026-04-25 14:47 27.68287 37.91456 35922 ft 403 kts 287°
2026-04-25 14:48 27.70479 37.85633 35912 ft 402 kts 287°
2026-04-25 14:48 27.72665 37.79818 35912 ft 402 kts 287°
2026-04-25 14:49 27.74849 37.74000 35910 ft 402 kts 287°
2026-04-25 14:49 27.77027 37.68187 35914 ft 403 kts 287°
2026-04-25 14:50 27.79208 37.62360 35919 ft 402 kts 287°
2026-04-25 14:50 27.81385 37.56535 35922 ft 402 kts 287°
2026-04-25 14:51 27.83545 37.50745 35927 ft 402 kts 287°
2026-04-25 14:51 27.85716 37.44914 35925 ft 403 kts 287°
2026-04-25 14:52 27.87888 37.39075 35932 ft 403 kts 287°
2026-04-25 14:52 27.89690 37.34225 35933 ft 402 kts 287°
2026-04-25 14:53 27.92221 37.27401 35932 ft 403 kts 287°
2026-04-25 14:53 27.94384 37.21557 35946 ft 403 kts 286°
2026-04-25 14:54 27.96550 37.15696 35945 ft 404 kts 286°
2026-04-25 14:54 27.98716 37.09828 35946 ft 404 kts 286°
2026-04-25 14:55 28.00863 37.04003 35953 ft 404 kts 286°
2026-04-25 14:55 28.03022 36.98136 35962 ft 404 kts 286°
2026-04-25 14:56 28.05179 36.92263 35945 ft 404 kts 287°
2026-04-25 14:56 28.07337 36.86377 35934 ft 405 kts 287°
2026-04-25 14:57 28.09499 36.80477 35933 ft 405 kts 287°
2026-04-25 14:57 28.11656 36.74576 35955 ft 406 kts 287°
2026-04-25 14:58 28.13818 36.68653 35919 ft 407 kts 287°
2026-04-25 14:58 28.15976 36.62730 35912 ft 407 kts 287°
2026-04-25 14:59 28.18121 36.56839 35918 ft 407 kts 287°
2026-04-25 14:59 28.20281 36.50896 35938 ft 408 kts 287°
2026-04-25 15:00 28.22076 36.45947 35943 ft 408 kts 287°
2026-04-25 15:00 28.24596 36.38991 35945 ft 408 kts 287°
2026-04-25 15:01 28.26749 36.33037 35939 ft 408 kts 287°
2026-04-25 15:01 28.28898 36.27084 35937 ft 408 kts 286°
2026-04-25 15:02 28.31031 36.21165 35939 ft 408 kts 286°
2026-04-25 15:02 28.33179 36.15193 35916 ft 408 kts 286°
2026-04-25 15:03 28.34961 36.10234 35923 ft 408 kts 286°
2026-04-25 15:03 28.37466 36.03251 35943 ft 408 kts 286°
2026-04-25 15:04 28.39247 35.98284 35939 ft 409 kts 286°
2026-04-25 15:04 28.41388 35.92296 35937 ft 408 kts 286°
2026-04-25 15:05 28.43511 35.86350 35940 ft 408 kts 286°
2026-04-25 15:06 28.46712 35.77369 35939 ft 408 kts 286°
2026-04-25 15:06 28.48839 35.71388 35928 ft 408 kts 286°
2026-04-25 15:07 28.51240 35.65506 35928 ft 415 kts 293°
2026-04-25 15:07 28.54163 35.59845 35933 ft 415 kts 293°
2026-04-25 15:08 28.57082 35.54170 35916 ft 415 kts 293°
2026-04-25 15:08 28.59994 35.48497 35936 ft 416 kts 293°
2026-04-25 15:09 28.62893 35.42841 35925 ft 417 kts 293°
2026-04-25 15:09 28.67276 35.34287 35954 ft 415 kts 293°
2026-04-25 15:10 28.70176 35.28601 35914 ft 415 kts 293°
2026-04-25 15:11 28.74523 35.20060 35909 ft 418 kts 293°
2026-04-25 15:11 28.77442 35.14325 35901 ft 418 kts 293°
2026-04-25 15:12 28.81811 35.05720 35901 ft 418 kts 293°
2026-04-25 15:12 28.84231 35.00947 35882 ft 417 kts 293°
2026-04-25 15:13 28.89087 34.91348 35870 ft 419 kts 293°
2026-04-25 15:13 28.90548 34.88454 36064 ft 422 kts 293°
2026-04-25 15:14 28.92008 34.85565 36616 ft 418 kts 293°
2026-04-25 15:14 28.93455 34.82704 37175 ft 415 kts 292°
2026-04-25 15:14 28.94890 34.79859 37626 ft 413 kts 292°
2026-04-25 15:14 28.96302 34.77058 38175 ft 409 kts 292°
2026-04-25 15:15 28.97714 34.74255 38680 ft 405 kts 292°
2026-04-25 15:15 28.99117 34.71467 39020 ft 405 kts 292°
2026-04-25 15:15 29.00518 34.68675 39273 ft 406 kts 292°
2026-04-25 15:15 29.01921 34.65878 39535 ft 406 kts 292°
2026-04-25 15:16 29.03328 34.63074 39790 ft 406 kts 292°
2026-04-25 15:16 29.07553 34.54655 39872 ft 402 kts 292°
2026-04-25 15:17 29.11751 34.46267 39899 ft 405 kts 292°
2026-04-25 15:18 29.14537 34.40687 39898 ft 407 kts 292°
2026-04-25 15:18 29.18750 34.32234 39896 ft 408 kts 292°
2026-04-25 15:19 29.21096 34.27527 39907 ft 406 kts 292°
2026-04-25 15:19 29.24345 34.20989 39935 ft 407 kts 292°
2026-04-25 15:20 29.27139 34.15361 39917 ft 406 kts 292°
2026-04-25 15:20 29.29929 34.09733 39912 ft 406 kts 292°
2026-04-25 15:21 29.32715 34.04105 39913 ft 406 kts 292°
2026-04-25 15:21 29.35482 33.98507 39912 ft 406 kts 292°
2026-04-25 15:22 29.38265 33.92871 39907 ft 406 kts 292°
2026-04-25 15:22 29.41043 33.87235 39907 ft 406 kts 292°
2026-04-25 15:23 29.43821 33.81593 39906 ft 406 kts 292°
2026-04-25 15:23 29.46594 33.75952 39907 ft 406 kts 292°
2026-04-25 15:24 29.49364 33.70309 39905 ft 406 kts 291°
2026-04-25 15:24 29.51668 33.65607 39879 ft 408 kts 292°
2026-04-25 15:25 29.54919 33.58968 39885 ft 408 kts 292°
2026-04-25 15:25 29.57700 33.53280 39890 ft 409 kts 292°
2026-04-25 15:26 29.60484 33.47578 39889 ft 409 kts 292°
2026-04-25 15:26 29.63269 33.41864 39896 ft 410 kts 292°
2026-04-25 15:27 29.66039 33.36172 39901 ft 410 kts 292°
2026-04-25 15:28 29.70201 33.27612 39885 ft 409 kts 291°
2026-04-25 15:28 29.72969 33.21899 39886 ft 409 kts 291°
2026-04-25 15:29 29.75742 33.16175 39890 ft 410 kts 291°
2026-04-25 15:29 29.78516 33.10437 39894 ft 411 kts 291°
2026-04-25 15:30 29.81293 33.04688 39890 ft 411 kts 291°
2026-04-25 15:30 29.84067 32.98934 39890 ft 411 kts 291°
2026-04-25 15:31 29.86837 32.93184 39884 ft 410 kts 291°
2026-04-25 15:31 29.89604 32.87428 39904 ft 411 kts 291°
2026-04-25 15:32 29.92373 32.81659 39880 ft 411 kts 291°
2026-04-25 15:32 29.95138 32.75893 39880 ft 411 kts 291°
2026-04-25 15:33 29.99276 32.67246 39864 ft 410 kts 291°
2026-04-25 15:33 30.02031 32.61478 39869 ft 410 kts 291°
2026-04-25 15:34 30.04764 32.55747 39857 ft 410 kts 291°
2026-04-25 15:34 30.06604 32.51884 39858 ft 410 kts 291°
2026-04-25 15:35 30.11648 32.41274 39868 ft 413 kts 291°
2026-04-25 15:36 30.15793 32.32537 39873 ft 414 kts 292°
2026-04-25 15:36 30.18557 32.26699 39877 ft 414 kts 292°
2026-04-25 15:37 30.21325 32.20844 39877 ft 415 kts 292°
2026-04-25 15:37 30.24090 32.14986 39868 ft 415 kts 292°
2026-04-25 15:38 30.26836 32.09161 39873 ft 415 kts 292°
2026-04-25 15:38 30.29595 32.03298 39879 ft 415 kts 292°
2026-04-25 15:39 30.32357 31.97421 39876 ft 415 kts 291°
2026-04-25 15:39 30.35105 31.91562 39874 ft 414 kts 291°
2026-04-25 15:40 30.36945 31.87636 39861 ft 414 kts 291°
2026-04-25 15:40 30.40591 31.79844 39888 ft 413 kts 291°
2026-04-25 15:41 30.43330 31.73980 39839 ft 414 kts 291°
2026-04-25 15:41 30.46065 31.68115 39839 ft 414 kts 291°
2026-04-25 15:42 30.48799 31.62243 39833 ft 414 kts 291°
2026-04-25 15:42 30.51511 31.56409 39832 ft 414 kts 291°
2026-04-25 15:43 30.54241 31.50527 39837 ft 415 kts 291°
2026-04-25 15:43 30.56976 31.44626 39829 ft 415 kts 291°
2026-04-25 15:44 30.59713 31.38714 39828 ft 416 kts 291°
2026-04-25 15:44 30.62447 31.32795 39828 ft 416 kts 291°
2026-04-25 15:45 30.65186 31.26861 39841 ft 417 kts 291°
2026-04-25 15:45 30.67001 31.22920 39823 ft 419 kts 291°
2026-04-25 15:46 30.70668 31.14947 39821 ft 421 kts 291°
2026-04-25 15:46 30.73427 31.08940 39833 ft 422 kts 291°
2026-04-25 15:47 30.76188 31.02919 39839 ft 423 kts 291°
2026-04-25 15:47 30.78952 30.96881 39843 ft 423 kts 291°
2026-04-25 15:48 30.81718 30.90829 39834 ft 424 kts 291°
2026-04-25 15:48 30.84483 30.84771 39834 ft 424 kts 291°
2026-04-25 15:49 30.87246 30.78707 39833 ft 423 kts 291°
2026-04-25 15:49 30.90000 30.72652 39830 ft 423 kts 291°
2026-04-25 15:50 30.92748 30.66600 39828 ft 423 kts 291°
2026-04-25 15:50 30.95493 30.60546 39825 ft 422 kts 291°
2026-04-25 15:51 30.97307 30.56541 39823 ft 422 kts 291°
2026-04-25 15:51 31.00949 30.48488 39818 ft 422 kts 291°
2026-04-25 15:52 31.03682 30.42438 39822 ft 422 kts 291°
2026-04-25 15:52 31.06414 30.36382 39818 ft 422 kts 291°
2026-04-25 15:53 31.08559 30.31294 39815 ft 419 kts 287°
2026-04-25 15:53 31.10621 30.24967 39818 ft 415 kts 282°
2026-04-25 15:54 31.12358 30.18543 39821 ft 415 kts 283°
2026-04-25 15:54 31.14128 30.12119 39827 ft 416 kts 283°
2026-04-25 15:55 31.15890 30.05667 39825 ft 418 kts 283°
2026-04-25 15:55 31.18322 29.99437 39829 ft 429 kts 295°
2026-04-25 15:56 31.22179 29.93971 39829 ft 445 kts 309°
2026-04-25 15:56 31.27330 29.89699 39821 ft 466 kts 323°
2026-04-25 15:57 31.33027 29.86180 39829 ft 466 kts 322°
2026-04-25 15:57 31.38749 29.82594 39876 ft 467 kts 322°
2026-04-25 15:58 31.44500 29.78984 39863 ft 469 kts 323°
2026-04-25 15:58 31.50260 29.75369 39871 ft 469 kts 323°
2026-04-25 15:59 31.56015 29.71751 39869 ft 470 kts 323°
2026-04-25 15:59 31.61749 29.68142 39876 ft 470 kts 323°
2026-04-25 16:00 31.66589 29.65093 39890 ft 470 kts 323°
2026-04-25 16:00 31.73290 29.60863 39889 ft 470 kts 323°
2026-04-25 16:01 31.79053 29.57220 39900 ft 470 kts 323°
2026-04-25 16:01 31.84816 29.53571 39898 ft 471 kts 323°
2026-04-25 16:02 31.90599 29.49905 39896 ft 472 kts 323°
2026-04-25 16:02 31.96383 29.46233 39901 ft 472 kts 323°
2026-04-25 16:03 32.02135 29.42576 39908 ft 473 kts 323°
2026-04-25 16:03 32.07926 29.38889 39910 ft 473 kts 323°
2026-04-25 16:04 32.13726 29.35189 39909 ft 474 kts 324°
2026-04-25 16:04 32.19533 29.31481 39908 ft 475 kts 324°
2026-04-25 16:05 32.25352 29.27757 39913 ft 475 kts 324°
2026-04-25 16:06 32.34085 29.22155 39914 ft 476 kts 324°
2026-04-25 16:06 32.39874 29.18436 39915 ft 477 kts 324°
2026-04-25 16:07 32.45703 29.14686 39913 ft 477 kts 324°
2026-04-25 16:07 32.51530 29.10931 39913 ft 477 kts 324°
2026-04-25 16:08 32.57359 29.07169 39915 ft 476 kts 324°
2026-04-25 16:08 32.63177 29.03408 39914 ft 476 kts 324°
2026-04-25 16:09 32.69002 28.99636 39901 ft 477 kts 324°
2026-04-25 16:09 32.74838 28.95853 39905 ft 477 kts 324°
2026-04-25 16:10 32.80640 28.92085 39899 ft 479 kts 324°
2026-04-25 16:10 32.86491 28.88280 39907 ft 479 kts 324°
2026-04-25 16:11 32.92344 28.84469 39907 ft 480 kts 324°
2026-04-25 16:11 32.98207 28.80644 39912 ft 481 kts 325°
2026-04-25 16:12 33.04074 28.76812 39909 ft 481 kts 324°
2026-04-25 16:12 33.09946 28.72970 39912 ft 481 kts 324°
2026-04-25 16:13 33.15781 28.69147 39906 ft 481 kts 324°
2026-04-25 16:13 33.21644 28.65299 39910 ft 481 kts 325°
2026-04-25 16:14 33.27518 28.61438 39900 ft 482 kts 325°
2026-04-25 16:14 33.33403 28.57564 39901 ft 482 kts 325°
2026-04-25 16:15 33.39278 28.53691 39899 ft 482 kts 325°
2026-04-25 16:15 33.45155 28.49810 39901 ft 482 kts 325°
2026-04-25 16:16 33.51026 28.45927 39900 ft 482 kts 325°
2026-04-25 16:16 33.56896 28.42038 39895 ft 482 kts 326°
2026-04-25 16:17 33.62773 28.38139 39893 ft 483 kts 326°
2026-04-25 16:17 33.68649 28.34234 39888 ft 483 kts 326°
2026-04-25 16:18 33.74492 28.30346 39888 ft 483 kts 326°
2026-04-25 16:18 33.80369 28.26430 39900 ft 483 kts 326°
2026-04-25 16:19 33.86249 28.22471 39881 ft 484 kts 326°
2026-04-25 16:19 33.92118 28.18499 39881 ft 484 kts 326°
2026-04-25 16:20 34.00928 28.12535 39884 ft 484 kts 326°
2026-04-25 16:21 34.09744 28.06554 39875 ft 486 kts 326°
2026-04-25 16:21 34.15636 28.02549 39856 ft 487 kts 326°
2026-04-25 16:22 34.21546 27.98526 39854 ft 488 kts 326°
2026-04-25 16:22 34.27423 27.94518 39873 ft 488 kts 326°
2026-04-25 16:23 34.33337 27.90479 39878 ft 489 kts 326°
2026-04-25 16:23 34.39271 27.86419 39874 ft 489 kts 326°
2026-04-25 16:24 34.45199 27.82357 39886 ft 490 kts 326°
2026-04-25 16:24 34.51134 27.78283 39871 ft 490 kts 326°
2026-04-25 16:25 34.56070 27.74889 39869 ft 490 kts 326°
2026-04-25 16:25 34.62999 27.70097 39871 ft 490 kts 326°
2026-04-25 16:26 34.68928 27.65990 39872 ft 490 kts 326°
2026-04-25 16:26 34.74807 27.61913 39870 ft 490 kts 326°
2026-04-25 16:27 34.80726 27.57802 39872 ft 489 kts 326°
2026-04-25 16:27 34.86637 27.53689 39866 ft 489 kts 326°
2026-04-25 16:28 34.92550 27.49567 39874 ft 489 kts 327°
2026-04-25 16:28 34.98460 27.45441 39873 ft 489 kts 327°
2026-04-25 16:29 35.04370 27.41308 39874 ft 489 kts 327°
2026-04-25 16:29 35.10272 27.37174 39873 ft 489 kts 327°
2026-04-25 16:30 35.16169 27.33037 39871 ft 488 kts 327°
2026-04-25 16:30 35.22058 27.28897 39871 ft 488 kts 327°
2026-04-25 16:31 35.27907 27.24779 39872 ft 488 kts 327°
2026-04-25 16:31 35.33797 27.20625 39870 ft 488 kts 327°
2026-04-25 16:32 35.39682 27.16468 39841 ft 488 kts 327°
2026-04-25 16:32 35.45586 27.12347 39832 ft 488 kts 328°
2026-04-25 16:33 35.51561 27.08368 39836 ft 488 kts 329°
2026-04-25 16:33 35.57532 27.04382 39844 ft 488 kts 329°
2026-04-25 16:34 35.63489 27.00380 39858 ft 488 kts 328°
2026-04-25 16:34 35.69443 26.96369 39873 ft 487 kts 328°
2026-04-25 16:35 35.75389 26.92354 39890 ft 487 kts 329°
2026-04-25 16:35 35.81301 26.88356 39893 ft 487 kts 329°
2026-04-25 16:36 35.87248 26.84325 39890 ft 488 kts 329°
2026-04-25 16:36 35.93188 26.80292 39897 ft 487 kts 329°
2026-04-25 16:37 35.99135 26.76247 39905 ft 487 kts 329°
2026-04-25 16:37 36.05085 26.72193 39896 ft 488 kts 329°
2026-04-25 16:38 36.11036 26.68132 39902 ft 488 kts 329°
2026-04-25 16:38 36.16949 26.64089 39905 ft 488 kts 329°
2026-04-25 16:39 36.22901 26.60013 39912 ft 489 kts 329°
2026-04-25 16:39 36.28852 26.55930 39917 ft 489 kts 328°
2026-04-25 16:40 36.34806 26.51838 39913 ft 489 kts 328°
2026-04-25 16:40 36.40762 26.47736 39915 ft 489 kts 329°
2026-04-25 16:41 36.46717 26.43629 39920 ft 489 kts 329°
2026-04-25 16:41 36.54638 26.38154 39936 ft 489 kts 329°
2026-04-25 16:42 36.60580 26.34038 39937 ft 488 kts 329°
2026-04-25 16:42 36.66513 26.29922 39935 ft 488 kts 329°
2026-04-25 16:43 36.72441 26.25803 39936 ft 487 kts 329°
2026-04-25 16:43 36.78358 26.21682 39953 ft 486 kts 329°
2026-04-25 16:44 36.84221 26.17591 39939 ft 486 kts 330°
2026-04-25 16:44 36.90113 26.13474 39941 ft 485 kts 329°
2026-04-25 16:45 36.95998 26.09355 39955 ft 484 kts 330°
2026-04-25 16:45 37.01882 26.05229 39956 ft 483 kts 329°
2026-04-25 16:46 37.07749 26.01107 39952 ft 483 kts 329°
2026-04-25 16:46 37.12624 25.97675 39945 ft 484 kts 330°
2026-04-25 16:47 37.19485 25.92839 39957 ft 483 kts 330°
2026-04-25 16:47 37.25308 25.88726 39977 ft 483 kts 330°
2026-04-25 16:48 37.31160 25.84585 39974 ft 482 kts 330°
2026-04-25 16:48 37.37014 25.80435 39962 ft 483 kts 330°
2026-04-25 16:49 37.42862 25.76282 39966 ft 483 kts 330°
2026-04-25 16:49 37.48705 25.72125 39967 ft 482 kts 330°
2026-04-25 16:50 37.54534 25.67970 39966 ft 482 kts 330°
2026-04-25 16:50 37.60367 25.63805 39964 ft 482 kts 330°
2026-04-25 16:51 37.66191 25.59640 39974 ft 481 kts 330°
2026-04-25 16:51 37.71028 25.56173 39981 ft 480 kts 330°
2026-04-25 16:52 37.77826 25.51294 39976 ft 481 kts 330°
2026-04-25 16:52 37.83640 25.47112 39979 ft 480 kts 330°
2026-04-25 16:53 37.92312 25.40860 39994 ft 480 kts 330°
2026-04-25 16:54 37.98118 25.36665 39994 ft 480 kts 330°
2026-04-25 16:54 38.03925 25.32461 39973 ft 481 kts 330°
2026-04-25 16:55 38.09728 25.28253 39986 ft 481 kts 330°
2026-04-25 16:55 38.15525 25.24041 40008 ft 480 kts 331°
2026-04-25 16:56 38.21316 25.19826 40009 ft 479 kts 330°
2026-04-25 16:56 38.27111 25.15600 39984 ft 480 kts 330°
2026-04-25 16:57 38.32897 25.11373 39997 ft 479 kts 330°
2026-04-25 16:57 38.38678 25.07141 39996 ft 479 kts 330°
2026-04-25 16:58 38.44415 25.02934 40000 ft 479 kts 330°
2026-04-25 16:58 38.50198 24.98685 39992 ft 479 kts 331°
2026-04-25 16:59 38.55979 24.94430 39998 ft 479 kts 331°
2026-04-25 16:59 38.61760 24.90167 40002 ft 480 kts 331°
2026-04-25 17:00 38.67545 24.85893 40005 ft 481 kts 331°
2026-04-25 17:00 38.73344 24.81600 40012 ft 481 kts 331°
2026-04-25 17:01 38.79139 24.77303 40018 ft 481 kts 331°
2026-04-25 17:01 38.84899 24.73023 40014 ft 481 kts 331°
2026-04-25 17:02 38.90692 24.68710 40018 ft 481 kts 331°
2026-04-25 17:02 38.96481 24.64392 40018 ft 481 kts 331°
2026-04-25 17:03 39.02265 24.60069 40023 ft 481 kts 331°
2026-04-25 17:03 39.08052 24.55737 40021 ft 480 kts 330°
2026-04-25 17:04 39.13822 24.51408 40025 ft 480 kts 331°
2026-04-25 17:04 39.19548 24.47104 40025 ft 479 kts 331°
2026-04-25 17:05 39.25308 24.42767 40022 ft 479 kts 331°
2026-04-25 17:05 39.33933 24.36256 40024 ft 478 kts 331°
2026-04-25 17:06 39.39669 24.31916 40035 ft 477 kts 330°
2026-04-25 17:06 39.45392 24.27577 40029 ft 476 kts 330°
2026-04-25 17:07 39.51111 24.23233 40023 ft 476 kts 330°
2026-04-25 17:07 39.56816 24.18891 40018 ft 475 kts 330°
2026-04-25 17:08 39.62513 24.14547 40021 ft 475 kts 330°
2026-04-25 17:08 39.68210 24.10195 40019 ft 475 kts 330°
2026-04-25 17:09 39.73895 24.05842 40019 ft 474 kts 330°
2026-04-25 17:09 39.79579 24.01483 40020 ft 474 kts 330°
2026-04-25 17:10 39.85229 23.97142 40014 ft 475 kts 331°
2026-04-25 17:10 39.90915 23.92764 40018 ft 475 kts 330°
2026-04-25 17:11 39.96608 23.88372 40020 ft 475 kts 330°
2026-04-25 17:11 40.02298 23.83974 40019 ft 475 kts 330°
2026-04-25 17:12 40.07994 23.79562 40020 ft 475 kts 330°
2026-04-25 17:12 40.13687 23.75144 40018 ft 475 kts 330°
2026-04-25 17:13 40.17451 23.72219 40016 ft 475 kts 331°
2026-04-25 17:13 40.25015 23.66328 40012 ft 475 kts 331°
2026-04-25 17:14 40.30705 23.61887 40010 ft 475 kts 331°
2026-04-25 17:14 40.36381 23.57447 40009 ft 475 kts 330°
2026-04-25 17:15 40.42065 23.52992 40010 ft 475 kts 330°
2026-04-25 17:15 40.47739 23.48537 40006 ft 475 kts 330°
2026-04-25 17:16 40.53413 23.44073 40005 ft 475 kts 330°
2026-04-25 17:16 40.59036 23.39639 39999 ft 474 kts 330°
2026-04-25 17:17 40.64691 23.35172 40004 ft 474 kts 330°
2026-04-25 17:17 40.70343 23.30699 40000 ft 473 kts 330°
2026-04-25 17:18 40.75977 23.26231 39996 ft 472 kts 330°
2026-04-25 17:18 40.81603 23.21760 39988 ft 472 kts 330°
2026-04-25 17:19 40.87223 23.17285 39992 ft 471 kts 330°
2026-04-25 17:19 40.92842 23.12805 39985 ft 471 kts 330°
2026-04-25 17:20 40.98415 23.08355 39988 ft 470 kts 330°
2026-04-25 17:20 41.04028 23.03858 39983 ft 470 kts 329°
2026-04-25 17:21 41.09282 22.98688 39994 ft 472 kts 321°
2026-04-25 17:21 41.13995 22.92607 39988 ft 473 kts 313°
2026-04-25 17:22 41.16815 22.88184 39990 ft 473 kts 312°
2026-04-25 17:22 41.22502 22.79324 39983 ft 473 kts 312°
2026-04-25 17:23 41.26789 22.72680 39978 ft 473 kts 314°
2026-04-25 17:23 41.31250 22.66235 39982 ft 473 kts 314°
2026-04-25 17:24 41.35696 22.59791 39986 ft 473 kts 314°
2026-04-25 17:24 41.40123 22.53304 40002 ft 473 kts 314°
2026-04-25 17:25 41.44539 22.46808 40001 ft 473 kts 314°
2026-04-25 17:25 41.48920 22.40348 40016 ft 472 kts 314°
2026-04-25 17:26 41.53320 22.33846 39991 ft 472 kts 314°
2026-04-25 17:26 41.57714 22.27340 39990 ft 471 kts 314°
2026-04-25 17:27 41.62099 22.20833 40001 ft 471 kts 314°
2026-04-25 17:27 41.65032 22.16473 40015 ft 470 kts 313°
2026-04-25 17:28 41.70775 22.07916 39982 ft 470 kts 313°
2026-04-25 17:28 41.75102 22.01451 39985 ft 469 kts 313°
2026-04-25 17:29 41.79453 21.94938 39988 ft 468 kts 313°
2026-04-25 17:29 41.83787 21.88435 39983 ft 467 kts 313°
2026-04-25 17:30 41.88116 21.81927 39983 ft 467 kts 313°
2026-04-25 17:30 41.92442 21.75408 39999 ft 467 kts 313°
2026-04-25 17:31 41.96037 21.69980 39980 ft 468 kts 313°
2026-04-25 17:31 42.00362 21.63435 39984 ft 468 kts 313°
2026-04-25 17:32 42.04682 21.56884 40003 ft 468 kts 313°
2026-04-25 17:32 42.09002 21.50319 40014 ft 468 kts 313°
2026-04-25 17:33 42.13324 21.43736 40016 ft 468 kts 313°
2026-04-25 17:33 42.17606 21.37176 40019 ft 469 kts 312°
2026-04-25 17:34 42.21821 21.30471 40027 ft 468 kts 311°
2026-04-25 17:34 42.26033 21.23751 40029 ft 468 kts 311°
2026-04-25 17:35 42.30240 21.17051 40026 ft 467 kts 311°
2026-04-25 17:35 42.34444 21.10347 40031 ft 467 kts 311°
2026-04-25 17:36 42.38638 21.03643 40028 ft 466 kts 311°
2026-04-25 17:36 42.42790 20.96991 40027 ft 466 kts 311°
2026-04-25 17:37 42.46967 20.90285 40024 ft 465 kts 311°
2026-04-25 17:37 42.51135 20.83577 40032 ft 464 kts 311°
2026-04-25 17:38 42.54590 20.78006 40024 ft 464 kts 311°
2026-04-25 17:38 42.59436 20.70172 40023 ft 463 kts 311°
2026-04-25 17:39 42.63578 20.63461 40021 ft 463 kts 311°
2026-04-25 17:39 42.67710 20.56750 40011 ft 463 kts 310°
2026-04-25 17:40 42.71807 20.50081 39991 ft 463 kts 310°
2026-04-25 17:40 42.75929 20.43358 40017 ft 463 kts 310°
2026-04-25 17:41 42.80042 20.36633 40027 ft 462 kts 310°
2026-04-25 17:41 42.84155 20.29897 40018 ft 462 kts 310°
2026-04-25 17:42 42.88323 20.23242 40013 ft 461 kts 311°
2026-04-25 17:42 42.92506 20.16605 40017 ft 461 kts 311°
2026-04-25 17:43 42.96675 20.09951 40011 ft 461 kts 311°
2026-04-25 17:43 43.00833 20.03286 40004 ft 461 kts 311°
2026-04-25 17:44 43.04992 19.96604 40004 ft 461 kts 310°
2026-04-25 17:44 43.09126 19.89946 40005 ft 461 kts 310°
2026-04-25 17:45 43.12599 19.84342 40005 ft 461 kts 310°
2026-04-25 17:45 43.17418 19.76546 40011 ft 461 kts 310°
2026-04-25 17:46 43.21559 19.69831 40007 ft 461 kts 310°
2026-04-25 17:46 43.25696 19.63108 40005 ft 460 kts 310°
2026-04-25 17:47 43.29823 19.56384 40004 ft 460 kts 310°
2026-04-25 17:47 43.33916 19.49701 40008 ft 460 kts 310°
2026-04-25 17:48 43.40076 19.39613 40011 ft 459 kts 310°
2026-04-25 17:49 43.44176 19.32880 40002 ft 458 kts 310°
2026-04-25 17:49 43.48263 19.26152 40001 ft 458 kts 310°
2026-04-25 17:50 43.52343 19.19421 39996 ft 458 kts 309°
2026-04-25 17:50 43.56393 19.12723 39995 ft 457 kts 309°
2026-04-25 17:51 43.60464 19.05974 40007 ft 457 kts 309°
2026-04-25 17:51 43.64526 18.99226 40003 ft 457 kts 309°
2026-04-25 17:52 43.68582 18.92472 40007 ft 456 kts 309°
2026-04-25 17:52 43.72622 18.85728 40006 ft 455 kts 309°
2026-04-25 17:53 43.76652 18.78985 40002 ft 455 kts 309°
2026-04-25 17:53 43.80677 18.72234 39991 ft 454 kts 309°
2026-04-25 17:54 43.84693 18.65484 40001 ft 453 kts 309°
2026-04-25 17:54 43.88701 18.58731 39999 ft 453 kts 309°
2026-04-25 17:55 43.92700 18.51978 39994 ft 453 kts 309°
2026-04-25 17:55 43.96688 18.45226 39995 ft 452 kts 309°
2026-04-25 17:56 44.00678 18.38457 39978 ft 452 kts 308°
2026-04-25 17:56 44.04630 18.31737 39978 ft 452 kts 308°
2026-04-25 17:57 44.08610 18.24952 39996 ft 452 kts 308°
2026-04-25 17:57 44.12590 18.18151 40007 ft 452 kts 308°
2026-04-25 17:58 44.16557 18.11356 40004 ft 452 kts 308°
2026-04-25 17:58 44.20518 18.04556 40001 ft 452 kts 308°
2026-04-25 17:59 44.24469 17.97755 40000 ft 451 kts 308°
2026-04-25 17:59 44.28414 17.90951 39975 ft 451 kts 308°
2026-04-25 18:00 44.32329 17.84185 39983 ft 451 kts 308°
2026-04-25 18:00 44.36264 17.77371 39997 ft 450 kts 308°
2026-04-25 18:01 44.40278 17.70655 39988 ft 450 kts 310°
2026-04-25 18:01 44.44411 17.64074 39989 ft 450 kts 310°
2026-04-25 18:02 44.48519 17.57463 39980 ft 450 kts 309°
2026-04-25 18:02 44.52612 17.50826 39979 ft 450 kts 309°
2026-04-25 18:03 44.56700 17.44174 39980 ft 450 kts 309°
2026-04-25 18:03 44.60783 17.37515 39976 ft 450 kts 309°
2026-04-25 18:04 44.64865 17.30854 40006 ft 450 kts 309°
2026-04-25 18:04 44.68973 17.24225 39991 ft 449 kts 309°
2026-04-25 18:05 44.73074 17.17595 39973 ft 449 kts 309°
2026-04-25 18:05 44.77168 17.10951 39972 ft 449 kts 309°
2026-04-25 18:06 44.81249 17.04308 39969 ft 449 kts 309°
2026-04-25 18:06 44.85295 16.97680 39968 ft 448 kts 308°
2026-04-25 18:07 44.89271 16.90912 39972 ft 448 kts 308°
2026-04-25 18:07 44.93238 16.84134 39987 ft 447 kts 308°
2026-04-25 18:08 44.97205 16.77368 39977 ft 447 kts 308°
2026-04-25 18:08 45.01166 16.70604 39977 ft 446 kts 308°
2026-04-25 18:09 45.05113 16.63846 39967 ft 446 kts 307°
2026-04-25 18:09 45.09057 16.57079 39961 ft 446 kts 307°
2026-04-25 18:10 45.12996 16.50303 39964 ft 446 kts 307°
2026-04-25 18:10 45.16927 16.43494 39968 ft 446 kts 307°
2026-04-25 18:11 45.20791 16.36678 39972 ft 446 kts 306°
2026-04-25 18:11 45.24676 16.29814 39971 ft 446 kts 306°
2026-04-25 18:12 45.28566 16.22938 39973 ft 447 kts 306°
2026-04-25 18:12 45.32455 16.16048 39976 ft 447 kts 306°
2026-04-25 18:13 45.36339 16.09151 39972 ft 447 kts 306°
2026-04-25 18:13 45.40220 16.02240 39968 ft 447 kts 306°
2026-04-25 18:14 45.46036 15.91854 39986 ft 447 kts 306°
2026-04-25 18:14 45.49882 15.84965 39975 ft 447 kts 306°
2026-04-25 18:15 45.53748 15.78023 39970 ft 446 kts 306°
2026-04-25 18:15 45.57606 15.71077 39954 ft 446 kts 306°
2026-04-25 18:16 45.61458 15.64126 39951 ft 446 kts 306°
2026-04-25 18:17 45.67231 15.53675 39953 ft 446 kts 306°
2026-04-25 18:17 45.71077 15.46693 39960 ft 447 kts 306°
2026-04-25 18:18 45.74924 15.39690 39968 ft 447 kts 306°
2026-04-25 18:18 45.78116 15.33868 39966 ft 447 kts 306°
2026-04-25 18:19 45.81951 15.26842 39964 ft 447 kts 305°
2026-04-25 18:19 45.85780 15.19807 39967 ft 447 kts 305°
2026-04-25 18:20 45.89605 15.12764 39976 ft 448 kts 305°
2026-04-25 18:20 45.93435 15.05695 39970 ft 448 kts 305°
2026-04-25 18:21 45.97262 14.98615 39975 ft 448 kts 305°
2026-04-25 18:21 46.01061 14.91567 39973 ft 449 kts 305°
2026-04-25 18:22 46.04884 14.84457 39985 ft 449 kts 305°
2026-04-25 18:22 46.08700 14.77343 39983 ft 449 kts 305°
2026-04-25 18:23 46.12574 14.70265 39988 ft 449 kts 306°
2026-04-25 18:23 46.16466 14.63204 39992 ft 449 kts 306°
2026-04-25 18:24 46.20343 14.56129 39993 ft 449 kts 306°
2026-04-25 18:24 46.24211 14.49040 39987 ft 449 kts 306°
2026-04-25 18:25 46.28079 14.41934 39988 ft 450 kts 306°
2026-04-25 18:25 46.31946 14.34811 39989 ft 450 kts 306°
2026-04-25 18:26 46.35784 14.27722 39987 ft 450 kts 306°
2026-04-25 18:26 46.39647 14.20571 39988 ft 451 kts 306°
2026-04-25 18:27 46.43507 14.13405 39954 ft 452 kts 306°
2026-04-25 18:27 46.47375 14.06210 39981 ft 452 kts 306°
2026-04-25 18:28 46.51234 13.99010 39990 ft 452 kts 306°
2026-04-25 18:28 46.55097 13.91798 39975 ft 453 kts 306°
2026-04-25 18:29 46.60900 13.80937 39986 ft 454 kts 306°
2026-04-25 18:30 46.68642 13.66370 40007 ft 455 kts 306°
2026-04-25 18:30 46.72490 13.59103 40017 ft 455 kts 306°
2026-04-25 18:31 46.76352 13.51787 40019 ft 456 kts 306°
2026-04-25 18:31 46.80224 13.44436 40037 ft 457 kts 306°
2026-04-25 18:32 46.84093 13.37068 40021 ft 457 kts 306°
2026-04-25 18:32 46.87960 13.29684 40036 ft 457 kts 306°
2026-04-25 18:33 46.91826 13.22285 40037 ft 458 kts 306°
2026-04-25 18:33 46.95684 13.14880 40038 ft 458 kts 306°
2026-04-25 18:34 46.99541 13.07460 40047 ft 457 kts 306°
2026-04-25 18:34 47.03366 13.00077 40053 ft 457 kts 306°
2026-04-25 18:35 47.07205 12.92645 40061 ft 456 kts 306°
2026-04-25 18:35 47.11042 12.85201 40052 ft 458 kts 306°
2026-04-25 18:36 47.14875 12.77749 40063 ft 457 kts 306°
2026-04-25 18:36 47.18702 12.70286 40067 ft 457 kts 307°
2026-04-25 18:37 47.22525 12.62808 40070 ft 458 kts 306°
2026-04-25 18:37 47.26353 12.55299 40078 ft 458 kts 306°
2026-04-25 18:38 47.30174 12.47787 40080 ft 458 kts 306°
2026-04-25 18:38 47.33988 12.40265 40095 ft 458 kts 306°
2026-04-25 18:39 47.37800 12.32728 40077 ft 458 kts 306°
2026-04-25 18:39 47.41607 12.25180 40075 ft 458 kts 306°
2026-04-25 18:40 47.45384 12.17670 40071 ft 458 kts 306°
2026-04-25 18:40 47.49176 12.10111 40068 ft 457 kts 306°
2026-04-25 18:41 47.52961 12.02548 40057 ft 457 kts 306°
2026-04-25 18:41 47.56748 11.94994 40055 ft 457 kts 306°
2026-04-25 18:42 47.59291 11.89949 40055 ft 457 kts 306°
2026-04-25 18:42 47.64353 11.79886 40054 ft 457 kts 307°
2026-04-25 18:43 47.68139 11.72324 40072 ft 456 kts 306°
2026-04-25 18:43 47.71815 11.64960 40058 ft 455 kts 306°
2026-04-25 18:44 47.75583 11.57390 40057 ft 455 kts 306°
2026-04-25 18:44 47.79344 11.49814 40059 ft 455 kts 306°
2026-04-25 18:45 47.83096 11.42233 40077 ft 454 kts 306°
2026-04-25 18:45 47.86835 11.34659 40080 ft 454 kts 306°
2026-04-25 18:46 47.90539 11.27135 40089 ft 453 kts 306°
2026-04-25 18:46 47.94256 11.19564 40100 ft 452 kts 306°
2026-04-25 18:47 47.97968 11.11983 40096 ft 451 kts 306°
2026-04-25 18:47 48.01663 11.04413 40091 ft 450 kts 306°
2026-04-25 18:48 48.05351 10.96839 40092 ft 450 kts 306°
2026-04-25 18:48 48.09037 10.89246 40093 ft 450 kts 306°
2026-04-25 18:49 48.12712 10.81655 40097 ft 451 kts 306°
2026-04-25 18:49 48.16385 10.74047 40113 ft 451 kts 306°
2026-04-25 18:50 48.20031 10.66474 40103 ft 451 kts 306°
2026-04-25 18:50 48.23699 10.58835 40105 ft 451 kts 306°
2026-04-25 18:51 48.26148 10.53722 40108 ft 451 kts 306°
2026-04-25 18:51 48.31019 10.43525 40115 ft 451 kts 306°
2026-04-25 18:52 48.34672 10.35850 40107 ft 451 kts 306°
2026-04-25 18:52 48.38322 10.28160 40112 ft 451 kts 305°
2026-04-25 18:53 48.41970 10.20455 40113 ft 451 kts 305°
2026-04-25 18:53 48.45584 10.12799 40113 ft 452 kts 305°
2026-04-25 18:54 48.51047 10.01183 40114 ft 452 kts 305°
2026-04-25 18:55 48.54682 9.93428 40115 ft 452 kts 305°
2026-04-25 18:55 48.58316 9.85652 40114 ft 452 kts 305°
2026-04-25 18:56 48.61916 9.77926 40107 ft 453 kts 305°
2026-04-25 18:56 48.65543 9.70125 40113 ft 453 kts 305°
2026-04-25 18:57 48.69206 9.62362 40121 ft 453 kts 307°
2026-04-25 18:57 48.73024 9.54787 40116 ft 452 kts 307°
2026-04-25 18:58 48.76832 9.47212 40104 ft 451 kts 307°
2026-04-25 18:58 48.82495 9.35809 40099 ft 451 kts 307°
2026-04-25 18:59 48.90014 9.20569 40094 ft 451 kts 307°
2026-04-25 19:00 48.95618 9.09155 40115 ft 450 kts 306°
2026-04-25 19:01 49.01227 8.97680 40103 ft 450 kts 306°
2026-04-25 19:01 49.04957 8.90021 40102 ft 450 kts 306°
2026-04-25 19:02 49.10542 8.78515 40101 ft 450 kts 306°
2026-04-25 19:03 49.14883 8.69537 40097 ft 450 kts 306°
2026-04-25 19:03 49.19827 8.59276 40098 ft 450 kts 306°
2026-04-25 19:04 49.25349 8.47762 40123 ft 449 kts 305°
2026-04-25 19:05 49.31761 8.33181 40113 ft 448 kts 304°
2026-04-25 19:06 49.35219 8.25304 40111 ft 448 kts 304°
2026-04-25 19:06 49.40449 8.13401 40113 ft 448 kts 304°
2026-04-25 19:07 49.45661 8.01468 40111 ft 448 kts 303°
2026-04-25 19:08 49.50863 7.89504 40120 ft 449 kts 303°
2026-04-25 19:09 49.57187 7.74884 40119 ft 449 kts 303°
2026-04-25 19:10 49.62952 7.61488 40116 ft 449 kts 303°
2026-04-25 19:10 49.66401 7.53439 40123 ft 450 kts 303°
2026-04-25 19:11 49.69845 7.45378 40141 ft 450 kts 303°
2026-04-25 19:11 49.73286 7.37301 40147 ft 450 kts 303°
2026-04-25 19:12 49.76719 7.29215 40159 ft 450 kts 303°
2026-04-25 19:12 49.80150 7.21113 40147 ft 450 kts 302°
2026-04-25 19:13 49.83553 7.13050 40145 ft 450 kts 302°
2026-04-25 19:13 49.86973 7.04921 40146 ft 450 kts 302°
2026-04-25 19:14 49.90391 6.96774 40152 ft 451 kts 302°
2026-04-25 19:14 49.93809 6.88600 40146 ft 451 kts 302°
2026-04-25 19:15 49.97218 6.80424 40132 ft 452 kts 302°
2026-04-25 19:15 50.00632 6.72209 40159 ft 452 kts 302°
2026-04-25 19:16 50.04042 6.63978 40154 ft 453 kts 302°
2026-04-25 19:16 50.07449 6.55729 40150 ft 453 kts 302°
2026-04-25 19:17 50.10848 6.47473 40150 ft 453 kts 302°
2026-04-25 19:17 50.14222 6.39253 40139 ft 453 kts 301°
2026-04-25 19:18 50.17619 6.30949 40145 ft 454 kts 301°
2026-04-25 19:18 50.21017 6.22619 40166 ft 455 kts 301°
2026-04-25 19:19 50.24407 6.14279 40171 ft 455 kts 301°